This is the latest recevied weather packets stored in our database for station/object SQ6RR-12. If no packets are shown the sender has not sent any weather packets the latest 1 day(s).
| Time | Temp. | Humidity | Pressure | Rain* | Wind** | Luminosity | Snow |
|---|---|---|---|---|---|---|---|
| 1778033161 | 12.22° C | 10% | 1006.5 hPa | 0 mm | - | - | - |
| 1778032612 | 12.22° C | 10% | 1006.5 hPa | 0 mm | - | - | - |
| 1778032347 | 12.78° C | 10% | 1006.5 hPa | 0 mm | - | - | - |
| 1778032072 | 12.78° C | 10% | 1006.5 hPa | 0 mm | - | - | - |
| 1778031527 | 12.22° C | 10% | 1006.5 hPa | 0 mm | - | - | - |
| 1778031287 | 11.67° C | 10% | 1006.5 hPa | 0 mm | - | - | - |
| 1778030757 | 11.67° C | 10% | 1006.5 hPa | 0 mm | - | - | - |
| 1778030239 | 11.67° C | 10% | 1006.4 hPa | 0 mm | - | - | - |
| 1778029988 | 12.22° C | 10% | 1006.5 hPa | 0 mm | - | - | - |
| 1778029732 | 12.22° C | 10% | 1006.5 hPa | 0 mm | - | - | - |
| 1778028945 | 12.22° C | 10% | 1006.5 hPa | 0 mm | - | - | - |
| 1778028407 | 11.67° C | 10% | 1006.5 hPa | 0 mm | - | - | - |
| 1778027862 | 11.67° C | 10% | 1006.5 hPa | 0 mm | - | - | - |
| 1778027607 | 11.67° C | 10% | 1006.4 hPa | 0 mm | - | - | - |
| 1778027367 | 11.67° C | 10% | 1006.3 hPa | 0 mm | - | - | - |
| 1778027092 | 11.67° C | 10% | 1006.4 hPa | 0 mm | - | - | - |
| 1778026287 | 11.67° C | 10% | 1006.5 hPa | 0 mm | - | - | - |
| 1778026021 | 11.11° C | 10% | 1006.5 hPa | 0 mm | - | - | - |
| 1778025187 | 11.67° C | 10% | 1006.7 hPa | 0 mm | - | - | - |
| 1778023859 | 11.11° C | 10% | 1007 hPa | 0 mm | - | - | - |
| 1778022522 | 11.67° C | 10% | 1006.7 hPa | 0 mm | - | - | - |
| 1778021992 | 11.67° C | 10% | 1006.7 hPa | 0 mm | - | - | - |
| 1778019852 | 12.22° C | 10% | 1007 hPa | 0 mm | - | - | - |
| 1778019049 | 11.67° C | 10% | 1007.1 hPa | 0 mm | - | - | - |
| 1778015744 | 12.22° C | 10% | 1007.4 hPa | 0 mm | - | - | - |
* Rain latest hour (hover to see other rain measurements)
** Current wind speed in m/s (hover to see current wind gust speed)